Temp
17 19 13 13 14 8 7 12 4 12 6 13 6 5 2 3 6 11 8 13 15 15 16 17 18 19 20 21 22 23 23 23 24 27 30 33 35 38 42 53 54 54 54 54
8 15 15 13 17 16 14 12 12 10 3 3 0 -3 1 1 7 11 11 12 14 15 16 16 17 18 20 20 21 22 22 22 24 25 28 31 33 34 39 47 53 53 53 53
10 -1 5 6 12 14 10 -2 7 -1 8 -2 -3 6 2 3 7 8 10 12 13 13 14 16 17 18 18 19 20 21 21 22 23 24 25 28 31 34 37 40 52 51 52 52
8 2 -1 10 2 3 8 4 -0 -4 -0 -1 -1 -3 -4 -1 1 6 10 12 11 12 14 16 18 18 19 19 20 20 20 20 21 22 24 26 29 32 33 38 48 50 51 51
10 2 6 15 4 3 5 8 6 6 1 5 4 -4 -5 5 2 1 1 5 7 10 13 15 16 17 17 17 18 19 18 19 20 22 23 25 27 29 32 34 39 49 50 50
8 4 -1 6 -2 -6 4 5 4 6 4 3 7 -2 -1 6 3 3 4 5 7 10 12 14 15 16 16 16 16 17 18 18 20 22 23 24 25 28 31 32 36 42 48 49
13 11 9 6 3 0 2 6 -1 -2 -1 2 1 0 0 2 7 7 5 5 9 9 9 12 15 15 14 15 15 17 18 19 20 21 22 24 26 28 30 32 34 38 44 47
13 9 6 9 6 7 6 -0 -3 -4 -3 -1 0 2 3 7 7 9 8 10 9 10 11 12 14 14 13 13 16 17 18 18 19 20 22 24 26 27 29 32 33 37 42 43
15 15 9 13 7 5 5 6 6 5 1 1 0 4 4 5 4 6 7 8 9 8 9 10 11 13 11 14 15 16 16 17 18 20 22 25 25 26 27 30 31 34 37 41
15 10 9 11 9 10 9 8 8 9 5 1 -3 -2 -2 0 2 3 6 7 9 7 7 8 10 12 12 14 15 15 15 16 18 19 24 24 26 26 27 29 30 31 33 39
12 7 8 9 11 11 9 9 8 8 6 4 0 0 -3 -5 -3 -0 3 6 5 4 5 6 9 9 12 14 14 13 14 15 17 19 22 22 24 25 28 30 32 31 31 33
13 11 11 9 11 10 8 6 6 4 1 3 1 1 3 -0 -1 -2 0 0 1 2 1 3 5 7 10 12 12 11 13 15 16 20 20 22 22 24 30 32 34 35 35 34
7 6 6 5 5 6 4 5 4 -1 0 -3 -2 -5 -2 -1 2 9 2 0 -1 0 2 1 1 4 7 10 11 11 12 14 18 20 20 21 21 22 22 28 33 34 35 35
4 5 2 3 -0 1 2 1 5 -3 -5 -6 -4 -3 -3 -3 -1 -0 -2 -2 -2 -1 -2 -3 -2 1 7 10 11 12 13 19 18 19 20 20 21 21 23 23 24 27 32 34
-4 -4 -4 -6 -6 -6 -5 -5 -4 -6 -8 -9 -13 -13 -15 -13 -12 -8 -7 -4 -3 -5 -5 -7 -4 2 8 11 12 12 14 15 19 20 20 21 20 21 23 24 25 26 28 32
-7 -9 -9 -10 -14 -15 -15 -17 -17 -18 -20 -20 -18 -16 -15 -14 -12 -10 -8 -9 -10 -3 -3 -5 -3 3 8 10 12 14 15 21 22 19 17 18 19 20 21 23 24 25 27 28
-14 -15 -15 -15 -18 -22 -20 -24 -22 -23 -25 -24 -17 -17 -15 -13 -11 -12 -8 -8 -9 -5 -3 0 3 7 8 10 13 14 15 16 21 14 16 17 18 20 21 22 23 25 26 29
-22 -23 -23 -20 -21 -24 -23 -25 -27 -26 -25 -22 -20 -18 -18 -17 -16 -11 -8 -7 -6 -3 2 7 5 10 11 12 12 16 14 13 13 13 15 16 18 20 20 21 22 24 25 28
-26 -21 -27 -25 -28 -28 -28 -27 -26 -23 -23 -22 -21 -19 -18 -14 -12 -8 -8 -8 -5 -3 4 6 13 15 11 13 19 13 12 11 12 12 14 18 18 18 20 20 22 23 24 25
-26 -28 -28 -28 -31 -28 -25 -26 -28 -28 -24 -27 -21 -16 -13 -10 -3 -4 -9 -9 -3 1 6 9 14 12 12 12 19 10 9 9 10 11 13 17 16 17 18 21 21 22 22 23
-26 -28 -26 -25 -26 -25 -24 -28 -29 -22 -20 -23 -14 -12 -7 -4 -0 0 -3 1 5 7 12 15 12 12 12 14 8 6 6 7 8 9 11 13 14 16 18 19 19 21 21 22
-31 -30 -29 -29 -27 -24 -23 -28 -27 -22 -20 -12 -6 -3 -0 0 3 2 4 2 6 14 13 10 9 13 19 13 1 2 4 5 7 8 10 12 14 15 16 18 18 19 20 21
-30 -30 -27 -29 -27 -25 -27 -26 -24 -22 -16 -8 -4 -2 -1 0 2 -1 -1 3 9 11 10 7 15 20 19 4 0 1 2 4 6 7 9 10 13 14 15 16 19 19 19 20
-30 -29 -29 -30 -35 -30 -23 -22 -24 -13 -13 -7 -5 -8 -9 -5 -0 -1 1 6 12 13 11 10 15 18 16 2 0 -1 1 3 5 7 9 15 10 12 14 15 16 18 19 19
-24 -27 -29 -28 -23 -19 -23 -22 -16 -8 -6 -5 -6 -11 -12 -5 -3 -6 -6 -4 8 10 6 9 14 15 8 6 5 3 2 3 7 11 9 9 9 10 12 14 16 17 17 18
-19 -17 -18 -19 -19 -17 -17 -13 -12 -11 -9 -9 -6 -8 -7 -7 -5 -6 -6 5 -3 7 2 3 6 8 7 6 6 4 4 4 4 7 11 9 9 10 11 13 14 15 17 18
-19 -6 -13 -11 -9 -11 -13 -13 -10 -12 -8 -13 -10 -4 -8 -7 -5 -2 3 -3 -2 -3 1 3 4 6 7 7 4 5 5 5 8 11 8 9 10 9 10 11 13 15 16 17
MSLP
1022.74 1023.17 1024.12 1024.57 1024.55 1025.50 1025.87 1024.72 1025.81 1022.22 1024.06 1023.48 1024.60 1025.54 1026.00 1025.85 1025.35 1025.06 1024.79 1024.16 1023.54 1022.87 1022.05 1021.28 1020.36 1019.28 1018.26 1016.94 1015.88 1014.69 1013.92 1013.00 1011.90 1011.04 1009.60 1008.38 1005.73 1005.71 1005.53 1003.77 1003.48 1004.04 1005.03 1005.83
1022.01 1022.48 1023.02 1023.14 1022.27 1022.89 1023.16 1023.67 1023.73 1023.63 1023.59 1023.42 1024.08 1025.08 1025.75 1025.59 1025.04 1024.79 1024.57 1024.03 1023.49 1022.97 1022.28 1021.45 1020.76 1019.88 1018.76 1017.26 1016.03 1015.45 1014.37 1012.92 1011.57 1010.93 1009.68 1008.00 1003.97 1006.26 1005.16 1003.89 1003.31 1003.40 1004.06 1004.81
1021.65 1022.86 1023.14 1022.31 1020.30 1020.97 1021.62 1022.37 1022.66 1023.68 1022.31 1023.48 1024.80 1025.13 1025.31 1025.36 1024.97 1024.76 1024.42 1023.94 1023.43 1022.99 1022.36 1021.54 1020.73 1020.05 1019.06 1017.94 1016.67 1015.03 1014.07 1012.75 1013.06 1012.00 1009.97 1006.79 1006.71 1007.06 1005.71 1004.56 1002.94 1003.31 1003.35 1004.30
1021.33 1022.77 1022.21 1019.01 1019.89 1020.61 1021.04 1021.24 1022.20 1022.67 1022.70 1023.45 1024.12 1024.88 1024.96 1025.16 1025.08 1024.85 1024.32 1023.89 1023.41 1022.78 1022.17 1021.34 1020.45 1019.63 1018.83 1018.08 1017.02 1016.08 1015.30 1014.31 1013.39 1011.98 1009.61 1007.95 1007.82 1006.36 1005.63 1004.17 1002.85 1002.83 1003.05 1003.50
1020.41 1021.05 1019.24 1019.24 1020.23 1021.17 1021.39 1020.75 1020.65 1021.91 1022.76 1023.55 1024.36 1025.22 1025.01 1024.87 1024.74 1024.65 1024.26 1023.68 1023.20 1022.57 1021.96 1021.12 1020.26 1019.40 1018.37 1017.34 1016.92 1016.24 1014.14 1013.39 1012.63 1011.56 1009.67 1009.19 1007.02 1006.18 1005.53 1004.70 1003.25 1002.41 1002.65 1002.96
1019.36 1019.69 1019.27 1018.35 1019.77 1020.43 1021.24 1021.01 1019.86 1020.82 1022.07 1023.28 1024.32 1025.17 1024.43 1024.54 1024.49 1024.35 1023.89 1023.35 1022.84 1022.21 1021.62 1020.97 1020.14 1019.29 1018.37 1017.19 1016.07 1014.98 1014.62 1013.80 1012.82 1011.57 1010.56 1008.60 1006.41 1006.18 1005.99 1004.87 1003.88 1003.05 1002.45 1002.67
1016.84 1017.61 1017.24 1017.60 1019.34 1020.87 1021.78 1020.59 1020.30 1021.25 1022.24 1023.19 1023.92 1024.29 1024.24 1024.16 1024.09 1023.84 1023.58 1023.22 1022.35 1021.89 1021.46 1020.79 1020.12 1019.35 1018.50 1017.49 1016.42 1015.35 1014.51 1014.40 1013.34 1011.57 1008.28 1006.46 1006.68 1007.29 1006.35 1004.94 1004.07 1003.05 1002.15 1002.52
1016.62 1017.19 1017.06 1017.32 1020.02 1020.52 1019.47 1020.19 1020.74 1021.70 1022.47 1023.29 1023.47 1023.89 1024.10 1024.11 1023.98 1023.67 1023.41 1022.91 1022.29 1021.68 1021.10 1020.62 1020.16 1019.58 1018.67 1017.86 1016.88 1015.41 1014.33 1012.46 1009.76 1008.99 1009.72 1008.71 1008.37 1007.30 1006.44 1005.27 1004.09 1003.57 1002.73 1002.09
1014.68 1014.41 1015.19 1016.31 1017.27 1018.04 1018.94 1019.74 1020.58 1021.19 1022.22 1022.84 1023.42 1023.85 1023.94 1024.04 1023.94 1023.63 1023.32 1022.92 1022.28 1021.74 1021.03 1020.47 1019.99 1019.61 1018.79 1017.75 1016.96 1015.87 1014.80 1013.79 1013.19 1012.30 1010.68 1009.97 1008.65 1008.10 1006.02 1004.76 1003.67 1002.68 1001.35 1001.26
1014.58 1014.64 1015.56 1016.65 1017.67 1018.24 1018.92 1019.64 1020.36 1020.97 1021.89 1022.71 1023.45 1023.67 1023.91 1024.06 1024.05 1023.77 1023.31 1022.81 1022.35 1021.80 1021.18 1020.49 1019.89 1019.32 1018.70 1017.64 1016.77 1015.83 1014.99 1013.73 1012.50 1010.59 1010.07 1008.74 1007.90 1006.59 1004.27 1003.79 1003.42 1002.07 1001.83 1002.33
1014.76 1015.71 1016.59 1017.17 1017.62 1018.25 1019.24 1019.94 1020.67 1021.45 1022.05 1022.77 1023.37 1023.74 1023.93 1024.14 1024.17 1023.69 1023.31 1022.90 1022.63 1022.15 1021.47 1020.70 1019.96 1019.12 1018.41 1017.44 1016.63 1015.42 1014.52 1013.79 1012.65 1010.95 1009.64 1006.46 1006.12 1005.63 1005.23 1005.34 1003.97 1003.37 1003.24 1003.10
1015.12 1015.48 1016.15 1016.90 1017.57 1018.76 1019.66 1020.53 1021.32 1022.00 1022.65 1023.11 1023.54 1023.94 1023.97 1024.14 1023.90 1023.59 1023.27 1023.03 1022.70 1022.27 1021.70 1020.78 1020.04 1019.07 1018.14 1017.45 1016.92 1016.15 1014.85 1013.49 1012.19 1010.13 1007.58 1008.02 1007.57 1005.86 1005.45 1003.88 1003.90 1003.82 1003.81 1003.30
1016.67 1017.53 1018.12 1018.86 1019.60 1020.18 1020.93 1021.66 1022.34 1023.04 1023.34 1023.77 1024.11 1024.30 1024.39 1024.38 1024.05 1023.50 1023.40 1023.16 1022.81 1022.40 1021.69 1020.90 1020.14 1019.16 1018.00 1017.07 1016.21 1015.16 1014.27 1013.33 1011.50 1010.81 1010.03 1008.50 1007.45 1006.70 1005.97 1005.18 1005.26 1004.86 1003.84 1003.16
1018.76 1019.20 1020.21 1020.71 1021.51 1022.03 1022.43 1023.07 1023.27 1024.10 1024.39 1024.67 1024.81 1024.85 1024.91 1024.85 1024.53 1024.12 1023.72 1023.35 1022.79 1022.22 1021.68 1020.81 1020.03 1019.13 1017.93 1017.16 1016.41 1015.62 1014.77 1013.44 1012.49 1011.07 1009.59 1008.61 1008.62 1007.06 1007.75 1007.06 1005.54 1004.38 1003.35 1002.64
1021.05 1021.21 1021.61 1022.44 1023.24 1023.82 1024.20 1024.63 1025.14 1025.54 1025.84 1025.97 1025.84 1025.69 1025.46 1025.30 1024.94 1024.39 1023.73 1023.21 1022.71 1022.08 1021.38 1020.61 1019.70 1018.57 1017.53 1016.82 1016.10 1015.04 1013.67 1012.76 1011.67 1010.32 1009.49 1009.09 1007.97 1007.90 1007.95 1006.21 1005.38 1004.71 1004.04 1003.37
1023.07 1023.36 1023.77 1024.44 1025.17 1025.54 1025.93 1026.44 1026.85 1026.99 1027.17 1027.01 1026.78 1026.26 1025.86 1025.46 1024.99 1024.37 1023.61 1023.10 1022.98 1022.08 1020.99 1020.37 1019.38 1018.09 1017.18 1016.35 1015.51 1014.50 1013.58 1012.43 1011.52 1010.74 1010.34 1009.74 1009.07 1008.82 1008.12 1007.21 1006.15 1005.22 1003.54 1002.88
1024.70 1025.58 1025.88 1026.48 1027.10 1027.15 1027.59 1028.11 1028.22 1028.20 1028.01 1027.76 1027.01 1026.49 1025.99 1025.42 1024.78 1024.10 1023.50 1022.74 1022.25 1021.50 1020.45 1019.64 1018.71 1017.56 1016.94 1016.20 1015.27 1014.48 1013.75 1013.16 1012.67 1012.23 1011.55 1010.92 1010.42 1009.47 1008.27 1007.38 1006.39 1004.89 1003.12 1003.14
1025.56 1025.99 1026.50 1026.85 1027.46 1028.05 1028.58 1028.51 1028.41 1028.35 1028.34 1027.72 1027.13 1026.44 1025.79 1025.16 1024.66 1023.84 1023.21 1022.43 1021.71 1020.65 1019.58 1018.56 1018.05 1016.89 1016.16 1015.75 1015.15 1014.23 1013.90 1013.61 1013.14 1012.35 1011.57 1010.83 1009.84 1008.90 1007.70 1006.92 1005.30 1004.49 1003.52 1003.18
1026.58 1027.07 1027.18 1027.34 1027.69 1028.25 1028.58 1028.59 1028.45 1028.37 1028.18 1027.65 1026.93 1026.04 1025.24 1024.46 1023.80 1023.18 1022.52 1022.19 1021.39 1020.46 1019.04 1018.13 1017.19 1016.46 1015.99 1015.44 1014.44 1014.30 1014.10 1013.86 1013.24 1012.27 1011.56 1010.55 1009.51 1008.30 1007.40 1006.32 1005.50 1005.01 1004.52 1003.82
1027.67 1027.56 1027.63 1027.87 1028.18 1028.35 1028.39 1028.43 1028.45 1028.14 1027.47 1027.03 1026.34 1025.31 1024.36 1023.41 1022.66 1022.28 1021.95 1021.51 1020.64 1019.82 1018.78 1017.73 1016.79 1016.16 1015.63 1015.10 1014.19 1014.29 1014.06 1013.63 1013.12 1012.06 1011.33 1009.96 1009.30 1008.30 1007.61 1006.69 1006.14 1005.48 1005.00 1004.23
1028.24 1027.95 1028.11 1028.33 1028.31 1028.28 1028.26 1028.18 1028.39 1027.71 1026.75 1026.12 1025.33 1024.28 1023.46 1022.56 1021.92 1021.55 1021.26 1020.61 1019.56 1018.94 1017.89 1017.36 1016.84 1016.03 1015.29 1014.96 1014.81 1014.55 1013.99 1013.45 1012.83 1011.97 1011.07 1010.21 1009.39 1008.47 1007.94 1007.25 1006.69 1005.97 1005.49 1004.90
1028.05 1028.25 1028.16 1028.18 1028.32 1028.25 1027.79 1027.55 1027.41 1026.75 1026.00 1024.99 1023.97 1023.20 1022.56 1021.93 1021.42 1021.12 1020.61 1020.15 1019.32 1018.24 1017.71 1017.56 1016.81 1015.75 1014.55 1015.00 1015.05 1014.75 1014.13 1013.46 1012.67 1012.03 1011.21 1010.44 1009.38 1008.63 1008.06 1007.63 1006.89 1006.26 1005.91 1005.47
1027.64 1027.75 1027.94 1028.16 1028.26 1028.12 1027.39 1026.78 1026.24 1025.79 1025.16 1024.16 1023.46 1022.80 1022.37 1021.85 1021.37 1021.05 1020.52 1019.94 1019.06 1018.18 1017.82 1017.47 1016.29 1015.14 1014.51 1015.22 1015.21 1014.97 1014.27 1013.39 1012.36 1011.72 1010.91 1010.30 1009.76 1009.16 1008.30 1007.79 1007.15 1006.64 1006.05 1005.73
1027.23 1027.40 1027.60 1027.70 1027.70 1027.60 1027.20 1026.30 1025.44 1024.65 1023.99 1023.48 1023.03 1022.71 1022.48 1021.98 1021.37 1020.93 1020.67 1019.97 1019.03 1017.96 1017.76 1017.41 1016.19 1015.36 1015.18 1015.36 1015.07 1014.76 1014.08 1013.38 1012.27 1011.53 1010.79 1010.27 1009.85 1009.12 1008.44 1007.95 1007.41 1006.82 1006.45 1006.30
1026.58 1026.77 1026.83 1026.86 1026.81 1026.54 1026.04 1025.41 1024.73 1023.85 1023.42 1023.03 1022.77 1022.64 1022.23 1021.76 1021.63 1021.15 1020.65 1020.11 1019.29 1018.52 1018.28 1017.74 1016.70 1015.89 1015.89 1015.49 1014.92 1014.56 1014.02 1013.28 1012.20 1011.38 1010.89 1010.47 1010.16 1009.52 1008.91 1008.40 1008.13 1007.65 1007.24 1006.82
1025.87 1025.84 1025.70 1025.46 1025.26 1025.04 1024.75 1024.54 1024.12 1023.64 1023.22 1022.94 1022.55 1022.38 1022.01 1021.57 1021.30 1020.94 1020.53 1019.88 1019.52 1018.83 1018.57 1017.96 1017.22 1016.45 1016.06 1015.66 1015.13 1014.57 1014.01 1013.39 1012.72 1011.67 1010.90 1010.65 1009.99 1009.42 1009.15 1008.73 1008.37 1008.03 1007.45 1007.20
1025.06 1024.10 1024.54 1024.22 1023.87 1023.78 1023.73 1023.69 1023.49 1023.09 1022.72 1022.64 1022.56 1022.19 1022.05 1021.64 1021.31 1020.90 1020.42 1020.19 1019.69 1019.23 1018.70 1018.14 1017.61 1016.96 1016.26 1015.90 1015.55 1015.00 1014.33 1013.68 1012.82 1011.97 1011.45 1010.75 1010.00 1009.82 1009.45 1009.24 1008.59 1008.14 1007.91 1007.70
Wind_Speed
16 17 7 10 18 12 18 20 12 25 14 14 8 10 7 6 3 5 6 9 10 12 12 12 12 13 15 14 14 14 14 13 14 16 14 13 8 9 11 11 18 20 19 17
6 12 15 19 25 20 23 22 22 23 24 6 5 2 4 6 2 5 7 9 11 12 13 13 12 13 14 15 15 14 13 13 14 15 14 13 12 11 12 11 13 18 19 19
9 3 5 10 25 22 9 4 11 11 15 8 3 7 5 5 4 4 7 9 10 11 12 12 12 12 12 14 14 14 13 13 14 14 13 12 11 9 11 11 14 17 19 19
3 2 8 6 2 3 8 5 11 4 5 6 6 5 4 4 4 5 6 9 9 9 11 12 13 12 12 12 11 12 12 11 13 14 13 11 10 10 11 9 8 13 16 18
6 7 10 13 7 9 9 10 12 15 7 6 4 3 5 6 4 5 6 6 6 7 10 11 11 12 13 13 11 11 14 14 15 15 13 11 10 10 11 10 10 11 12 16
4 6 9 7 4 4 4 9 7 10 12 10 7 2 4 4 3 5 5 5 7 8 8 9 11 11 12 13 14 14 14 16 15 14 12 11 10 11 8 8 9 7 10 13
18 15 9 5 7 4 7 9 4 6 5 7 5 5 4 2 3 3 4 6 7 5 6 8 10 11 11 12 13 14 15 14 14 14 13 12 10 10 9 8 8 7 8 9
8 6 16 10 7 9 3 2 5 5 5 5 4 1 1 2 3 5 7 8 7 7 8 9 9 10 11 11 13 14 15 16 17 16 11 9 10 9 9 7 5 6 7 8
13 8 2 17 2 3 4 5 5 7 5 6 5 3 1 2 4 5 7 7 7 6 9 9 8 8 11 13 13 13 15 14 14 13 11 8 7 9 7 7 5 5 2 6
2 4 4 13 2 6 4 4 6 5 6 6 5 4 3 3 4 5 5 6 6 8 9 10 9 11 10 12 13 12 13 14 14 13 13 9 6 6 6 7 6 6 5 5
3 2 2 6 7 9 7 7 8 5 5 5 6 3 4 3 4 5 5 4 5 7 8 10 11 12 12 12 12 12 12 12 12 11 12 12 10 9 7 6 7 5 4 3
5 3 1 0 10 11 11 7 7 5 3 2 4 3 2 2 4 3 5 4 6 7 7 10 10 12 12 10 10 10 11 10 11 9 11 9 9 9 15 17 16 13 9 7
2 5 7 8 7 3 7 6 4 5 3 3 1 2 1 1 4 6 5 6 7 8 9 9 10 11 11 11 10 11 11 12 9 11 9 8 9 8 9 13 14 11 12 9
7 6 6 2 3 5 7 5 4 3 3 2 1 2 1 1 4 5 6 7 8 7 8 8 9 11 11 10 10 10 10 17 9 9 8 9 8 7 6 7 8 7 12 13
6 5 4 7 5 5 4 3 3 3 3 3 3 2 2 3 4 6 7 7 8 8 7 6 8 11 10 10 10 11 10 8 9 9 8 11 8 7 7 7 7 6 6 7
5 6 6 6 5 3 3 3 3 2 2 3 4 4 4 4 6 6 7 6 4 8 10 7 9 10 10 10 10 9 8 17 17 9 8 8 7 8 7 7 7 6 5 6
6 2 2 1 3 2 3 2 2 3 3 4 6 6 6 6 6 5 7 6 6 8 9 8 9 11 10 8 10 8 6 8 16 7 7 7 7 7 7 7 6 6 4 7
3 3 4 5 6 4 3 4 4 3 4 4 6 5 5 3 5 7 7 7 7 8 7 8 7 11 6 8 10 6 5 7 7 7 7 8 8 6 6 7 6 7 6 6
1 5 3 3 4 4 3 3 4 4 5 5 4 6 6 7 6 6 5 6 6 6 8 10 18 12 10 11 14 4 6 6 7 7 7 11 7 7 7 7 7 6 6 6
2 2 3 1 1 4 4 4 4 5 6 4 5 5 6 7 6 5 3 5 6 6 9 12 9 11 9 12 13 5 6 6 7 6 7 7 6 7 6 9 8 6 6 5
3 2 2 4 4 4 6 4 4 6 6 4 5 6 6 7 5 4 4 5 5 9 11 12 10 8 8 3 6 5 6 6 6 6 7 7 7 6 6 6 6 5 5 5
3 3 4 3 3 4 4 4 5 6 6 6 6 6 6 4 4 4 4 4 6 17 5 5 7 15 8 13 3 5 7 7 6 6 5 6 6 6 6 6 5 5 5 5
4 3 3 4 5 5 5 5 4 4 5 5 5 4 3 3 2 2 5 6 7 13 3 6 14 19 18 7 5 6 6 7 7 6 6 6 5 5 5 5 5 4 4 4
3 4 4 2 2 2 4 4 4 6 5 5 4 4 2 3 4 2 4 11 16 13 9 11 14 19 17 5 5 5 6 6 6 6 6 10 5 5 5 5 5 4 4 5
4 3 3 2 2 4 4 4 5 4 4 2 3 4 4 3 2 4 4 5 12 10 5 13 17 18 6 7 6 6 5 6 7 5 5 4 4 4 4 3 4 3 3 3
4 3 3 5 4 3 2 1 2 3 2 2 2 3 3 3 3 3 4 8 3 11 5 6 6 7 6 7 6 7 6 6 7 6 7 5 4 4 4 4 3 3 3 3
3 6 3 2 2 3 3 3 2 3 2 2 3 3 2 3 4 5 8 4 4 4 5 5 5 8 6 7 7 7 7 6 9 6 6 6 4 4 4 3 3 3 3 3
Wind_Direction
242 259 201 241 251 197 207 228 226 271 239 257 239 212 226 225 261 302 310 319 320 323 323 322 326 323 320 323 325 329 325 322 322 309 309 303 352 343 293 235 191 185 184 183
263 243 239 247 256 245 230 239 246 262 270 213 206 215 223 236 244 305 308 314 317 320 320 321 323 321 319 323 327 322 319 322 323 312 312 311 19 325 307 276 200 187 184 183
264 6 338 263 246 238 223 192 201 209 241 158 197 213 218 220 211 263 290 308 318 316 315 316 316 316 320 321 317 324 326 332 316 308 313 335 347 318 318 295 195 199 183 183
257 26 253 249 186 157 216 226 219 284 220 188 185 219 228 217 197 247 277 310 310 310 311 312 313 318 318 318 321 322 317 319 313 311 319 332 318 336 319 311 239 196 190 185
236 199 298 296 189 169 171 259 201 217 185 193 176 81 295 207 208 224 240 265 270 291 299 307 314 321 319 319 323 322 331 329 320 313 322 314 334 335 322 315 317 194 190 188
151 225 240 233 218 200 137 282 188 184 179 164 155 194 251 206 242 276 271 271 288 293 304 311 319 323 323 322 325 334 332 323 313 311 307 311 337 327 308 308 299 288 186 193
232 237 268 190 159 152 119 242 135 141 139 142 174 191 203 270 299 268 260 286 294 301 297 309 320 324 323 322 325 325 322 315 308 306 323 336 334 309 301 306 289 284 184 176
218 239 254 141 101 182 192 25 127 125 155 153 166 154 223 265 287 308 314 318 310 314 319 314 320 325 320 321 320 322 321 320 329 331 319 320 314 314 308 302 300 262 193 156
197 214 97 181 125 147 142 140 168 141 164 150 143 175 196 271 305 303 313 311 305 317 316 315 317 325 316 314 318 324 321 322 313 306 310 305 320 307 314 319 334 310 205 158
144 185 193 185 162 150 159 142 144 135 141 150 153 167 224 277 295 303 308 311 322 319 317 313 321 320 310 312 320 321 317 318 312 321 317 324 316 309 335 338 332 354 348 183
260 119 77 215 197 163 146 129 116 113 130 146 144 174 181 241 286 287 296 304 315 309 309 307 314 314 314 317 320 323 319 313 312 313 315 337 338 330 332 299 329 322 307 308
225 149 117 301 161 153 150 145 138 135 123 108 136 145 137 263 260 263 292 301 317 306 299 305 312 309 310 312 314 309 313 316 308 317 344 326 322 332 333 338 339 334 296 279
156 74 76 87 78 68 108 111 108 115 122 131 69 124 143 245 284 314 333 314 310 303 298 301 305 305 306 310 315 316 315 311 314 323 311 330 333 332 334 331 327 334 331 315
68 97 85 73 126 79 102 89 88 86 77 101 80 39 27 310 307 315 302 298 296 293 296 295 303 297 298 305 306 303 302 314 306 305 320 333 308 337 308 301 315 322 334 328
38 36 85 106 79 69 59 48 85 75 12 343 5 321 336 323 296 289 291 297 304 295 287 292 301 297 304 310 308 309 313 312 313 325 330 322 328 317 295 306 309 307 320 324
88 71 72 91 99 66 83 36 106 285 316 297 314 305 284 259 275 282 289 293 320 306 302 298 292 287 303 308 307 313 315 324 332 328 325 318 321 310 305 303 303 293 324 330
92 52 80 95 167 191 192 211 205 219 280 281 277 293 304 302 298 297 300 290 274 278 278 277 277 297 298 292 310 306 302 319 321 317 307 304 294 288 304 300 296 293 322 308
130 127 143 148 165 187 249 237 230 255 247 257 287 290 295 296 266 289 288 302 306 304 289 285 291 288 310 316 303 295 327 315 306 304 302 300 295 312 309 304 323 329 338 321
112 146 166 154 169 175 208 245 231 242 278 270 292 283 262 268 263 268 285 301 296 303 302 310 309 333 312 309 320 345 325 308 303 301 299 306 313 313 315 320 328 329 326 333
117 97 120 208 170 187 250 250 263 284 273 270 274 282 286 279 275 283 282 262 255 253 284 290 318 316 310 309 329 334 308 308 302 305 303 323 316 316 321 334 330 329 329 337
183 184 217 223 249 245 236 235 253 277 286 256 266 270 271 276 280 286 300 306 298 308 299 342 319 310 306 335 353 316 312 311 310 310 309 309 313 322 320 324 326 331 333 332
192 202 229 228 235 277 259 250 239 270 279 284 277 268 277 284 298 308 279 268 299 307 339 328 311 301 334 18 335 331 320 309 307 306 310 311 316 322 324 320 327 333 335 329
187 199 203 208 223 242 296 279 266 243 266 277 295 311 318 304 299 313 322 304 317 304 37 337 313 322 9 11 337 320 314 312 311 309 311 309 312 311 319 321 332 333 341 338
195 203 222 208 156 12 319 287 283 278 240 261 270 281 285 321 316 265 295 323 320 326 353 325 325 333 11 330 320 316 312 309 310 303 316 335 318 319 325 328 327 338 351 356
197 205 181 174 230 248 233 267 296 296 344 318 310 298 292 274 219 279 297 301 327 339 346 330 343 342 350 325 315 321 314 312 307 329 327 324 318 323 327 337 327 321 349 355
189 213 214 216 220 229 233 257 264 278 276 294 295 301 309 301 307 342 313 335 334 344 323 318 318 339 336 325 342 327 324 321 322 315 341 325 331 336 335 341 345 347 352 359
236 228 217 256 232 215 209 208 223 270 302 236 256 283 303 308 318 349 342 321 308 313 321 326 332 341 347 346 333 332 333 333 340 346 334 323 340 331 334 326 345 2 3 23